TimePDT,TemperatureF,Dew PointF,Humidity,Sea Level PressureIn,VisibilityMPH,Wind Direction,Wind SpeedMPH,Gust SpeedMPH,PrecipitationIn,Events,Conditions,WindDirDegrees,DateUTC
12:55 AM,41.0,35.1,79,30.14,10.0,West,5.8,-,N/A,,Mostly Cloudy,280,2013-03-21 07:55:00
1:55 AM,43.0,35.1,74,30.15,10.0,WSW,16.1,19.6,N/A,,Mostly Cloudy,250,2013-03-21 08:55:00
2:55 AM,39.9,35.1,83,30.16,10.0,SW,6.9,-,0.00,,Overcast,230,2013-03-21 09:55:00
3:55 AM,42.1,34.0,73,30.17,10.0,WNW,12.7,18.4,0.00,,Overcast,290,2013-03-21 10:55:00
4:55 AM,39.9,32.0,73,30.18,10.0,West,6.9,-,0.00,,Overcast,260,2013-03-21 11:55:00
5:55 AM,41.0,34.0,76,30.19,10.0,West,3.5,-,N/A,,Overcast,280,2013-03-21 12:55:00
6:55 AM,41.0,34.0,76,30.20,10.0,West,4.6,-,N/A,,Mostly Cloudy,280,2013-03-21 13:55:00
7:55 AM,39.9,34.0,79,30.21,10.0,WSW,4.6,-,0.00,,Overcast,250,2013-03-21 14:55:00
8:55 AM,44.1,34.0,68,30.22,10.0,West,13.8,-,N/A,,Overcast,280,2013-03-21 15:55:00
9:55 AM,42.1,34.0,73,30.24,10.0,NW,9.2,-,0.00,,Overcast,310,2013-03-21 16:55:00
10:55 AM,44.1,35.1,71,30.27,10.0,WSW,12.7,19.6,N/A,,Overcast,250,2013-03-21 17:55:00
11:07 AM,39.2,33.8,81,30.27,3.0,NW,6.9,25.3,0.02,Rain,Rain,310,2013-03-21 18:07:00
11:21 AM,42.8,35.6,76,30.27,10.0,West,6.9,-,0.03,,Overcast,270,2013-03-21 18:21:00
11:55 AM,46.9,37.9,71,30.26,10.0,West,12.7,17.3,0.03,,Scattered Clouds,270,2013-03-21 18:55:00
12:20 PM,44.6,37.4,76,30.27,10.0,NW,11.5,20.7,0.00,,Overcast,310,2013-03-21 19:20:00
12:47 PM,48.2,35.6,62,30.26,10.0,West,16.1,23.0,0.00,,Mostly Cloudy,280,2013-03-21 19:47:00
12:55 PM,46.9,36.0,66,30.27,10.0,West,19.6,27.6,0.00,,Mostly Cloudy,280,2013-03-21 19:55:00
1:55 PM,45.0,33.1,63,30.27,10.0,WNW,9.2,-,N/A,,Mostly Cloudy,290,2013-03-21 20:55:00
2:55 PM,46.0,36.0,68,30.26,10.0,NW,9.2,20.7,0.00,,Overcast,310,2013-03-21 21:55:00
3:04 PM,44.6,37.4,76,30.26,10.0,NW,11.5,-,N/A,,Overcast,320,2013-03-21 22:04:00
3:34 PM,37.4,33.8,87,30.28,2.5,WNW,16.1,27.6,0.02,Rain,Heavy Rain,290,2013-03-21 22:34:00
3:50 PM,39.2,37.4,93,30.27,9.0,WNW,8.1,-,0.05,Rain,Light Rain,300,2013-03-21 22:50:00
3:55 PM,41.0,37.0,86,30.27,10.0,West,6.9,-,0.05,Rain,Light Rain,280,2013-03-21 22:55:00
4:08 PM,42.8,35.6,76,30.27,10.0,West,6.9,-,0.00,,Overcast,270,2013-03-21 23:08:00
4:47 PM,39.2,35.6,87,30.29,2.5,West,19.6,31.1,0.02,Rain,Rain,280,2013-03-21 23:47:00
4:55 PM,39.9,35.1,83,30.28,5.0,West,12.7,26.5,0.03,Rain,Light Rain,260,2013-03-21 23:55:00
5:17 PM,41.0,37.4,87,30.27,10.0,WSW,5.8,-,0.00,,Overcast,240,2013-03-22 00:17:00
5:55 PM,43.0,37.0,80,30.27,10.0,WNW,12.7,-,0.01,,Overcast,300,2013-03-22 00:55:00
6:55 PM,39.9,36.0,86,30.27,10.0,WNW,6.9,-,N/A,,Overcast,300,2013-03-22 01:55:00
7:55 PM,39.9,35.1,83,30.27,10.0,Calm,Calm,-,N/A,,Scattered Clouds,0,2013-03-22 02:55:00
8:55 PM,41.0,35.1,79,30.29,10.0,WNW,10.4,-,N/A,,Overcast,290,2013-03-22 03:55:00
9:55 PM,37.9,34.0,86,30.29,10.0,West,5.8,-,0.01,,Partly Cloudy,280,2013-03-22 04:55:00
10:55 PM,39.9,34.0,79,30.30,10.0,West,6.9,-,N/A,,Mostly Cloudy,280,2013-03-22 05:55:00
11:55 PM,39.9,33.1,77,30.30,10.0,WNW,9.2,-,N/A,,Partly Cloudy,290,2013-03-22 06:55:00